[Date Prev][Date Next][Thread Prev][Thread Next][Date Index][Thread Index]

[jamsat-news:1748] jas2info #292



========================   最新情報   ==============================

        Last updated  27Sep2002  17:40(JST)   #292

====================================================================
   
1)アマチュア通信衛星情報、FOシリーズの軌道要素、テレメトリ、QSOの
   状況等をまとめてみました.
   
 FO−29の2002年9月27日(金)の15:43(JST)のパスでは
JARLのホームページのとうりアナログ運用でした。 今日までの観測した
テレメトリーと最終行の分析結果を報告しておきます。

AS30180C  27Sep2002
15:43-15:56(JST)
AOS   MEL  LOS  Elev
 35    88  143  13.8
Freq. 435.802-.789Hz
(JAS-2 No.109 A 950-1700 )

HI HI AE 07 88 55 00 D4 00 00 09 00 4D 62 48 64 85 83 8E 74 89 8A 8C 88 81 
HI HI AE 07 88 55 00 D4 00 00 09 00 4A 67 4A 63 85 83 8F 77 89 8A 8C 88 81 
HI HI AE 07 88 55 00 D4 00 00 09 00 47 6E 4B 62 85 83 8F 72 88 8A 8C 88 81 
HI HI AE 07 88 55 00 D4 00 00 09 00 44 54 4B 63 85 83 8F 7D 89 8A 8C 88 81 
HI HI AE 07 88 55 00 D4 00 00 09 00 42 7A 4B 62 85 83 8F 7O 89 8A 8C 88 81 
HI HI AE 07 88 55 00 D4 00 00 09 00 3F 7F 4C 61 85 83 8F 77 89 8A 8C 88 81 
HI HI AE 07 88 55 00 D4 00 00 09 00 3E 83 4E 62 85 83 8F 87 8A 8A 8C 89 81 
HI HI AE 07 88 55 00 D4 00 00 09 00 3D 87 4E 60 85 83 8F 74 8A 8A 8C 89 81 
HI HI AE 07 88 55 00 D4 00 00 09 00 3D 89 4F 60 85 83 8F 69 8A 8B 8C 89 81 
HI HI AE 07 88 55 00 D4 00 00 09 00 3D 8A 50 5F 85 83 8F 71 8A 8A 8C 89 81
HI HI AE 07 88 55 00 D4 00 00 09 00 3F 89 53 5E 85 83 8F 7B 8A 8A 8C 89 81 
HI HI AE 07 88 55 00 D4 00 00 09 00 40 88 57 5B 86 83 8F 87 8A 8B 8C 89 81 
HI HI AE 07 88 55 00 D4 00 00 09 00 43 84 59 5A 86 83 8F 76 8A 8B 8C 89 81 
HI HI AE 07 88 55 00 D4 00 00 09 00 46 7F 5B 5A 86 83 8F 5C 8A 8A 8C 89 81 
HI HI AE 07 88 55 00 D4 00 00 09 00 49 78 5B 5A 86 84 90 7D 8A 8B 8C 89 81

AS30168C  26Sep2002
18:23-18:38(JST)
AOS   MEL  LOS  Elev
360   295  229  26.7
Freq. 435.803-.786Hz
(JAS-2 No.109 A 0-950 )

HI HI AE 07 88 55 00 D4 8F F4 09 09 3C 2E 74 4D 91 8D 9A A1 8E 8B 89 8C 83 
HI HI AE 07 88 55 00 D4 8F F4 09 09 40 30 73 4E 92 8E 9B 82 8E 8B 89 8C 83 
HI HI AE C7 88 55 00 D4 8F F4 09 09 47 32 6E 51 92 8D 9B 7B 8F 8B 89 8C 83 
HI HI AE 07 88 55 00 D4 CF C3 09 10 50 36 6D 50 92 8E 9C 60 8F 8B 89 8C 83 
HI HI AE C7 88 55 00 D4 CF C3 09 10 5A 3A 70 4E 92 8E 9B 7C 8F 8B 89 8C 83 
HI HI AE C7 88 55 00 D4 CF C3 09 10 65 3E 74 4D 92 8E 9C 83 8F 8B 89 8C 83 
HI HI AE 07 88 55 00 D4 CF C3 09 10 71 41 74 4D 93 8E B0 6F 8F 8B 89 8C 83 
HI HI AE 07 88 55 00 D4 CF C3 09 10 7B 42 73 5E 90 8C 9A 84 8F 8B 89 8C 83 
HI HI AE 07 88 55 00 D4 CF C3 09 10 85 45 75 4E 92 8E 9B 73 8F 8B 89 8D 83 
HI HI AE C7 88 55 00 D4 CF C3 09 10 8B 44 76 4D 93 8F 9C 7F 8F 8B 89 8D 83 
HI HI AE 07 88 55 00 D4 CF C3 09 10 5F 40 79 4C 91 8D 9B 75 8F 8B 8A 8D 83 
HI HI AE C7 88 55 00 D4 CF C4 09 10 55 43 7B 5E 91 8D B0 81 8F 8B 89 8D 83 
HI HI AE C7 88 55 00 D4 CF C3 09 10 4F 3A 7D 49 93 8E B0 76 8F 8B 8A 8D 83 
HI HI AE 07 88 55 00 D4 CF C3 09 10 8A 36 7F 48 92 8F 9C 90 8F 8B 8A 8D 83 
HI HI AE 07 88 55 00 D4 CF C3 09 10 82 32 7F 48 92 8F 9D 84 8F 8B 8A 8D 83 
HI HI AE C7 88 55 00 D4 CF C3 09 10 6E 4E 64 50 92 8E 9C 7C 8F 8B 8A 8D 83 
HI HI AE C7 88 55 00 D4 CF C3 09 10 63 43 5D 51 91 8D 9B 74 8E 8B 8A 8D 83 
HI HI AE 07 88 55 00 D4 CF C3 09 10 5A 3F 71 51 4F 93 8D B0 8E 8B 8A 8D 83 
HI HI AE 07 88 55 00 D4 CF C3 09 10 50 3A 75 5E 90 8D 9A 67 8E 8B 8B 8D 83 
HI HI AE 07 88 55 00 D4 CF C3 09 10 4B 45 7A 4A 93 8E 9C 6D 8E 8H 8B 8D 84 

AS30154C  25Sep2002
17:34-17:49(JST)
AOS   MEL  LOS  Elev
  9   287  202  68.2
Freq. 435.803-.786Hz
(JAS-2 No.108 B 3230-3750END)

HI HI AE 07 88 55 00 D4 02 D1 09 4B 3E A1 5F 58 8C 88 95 7F 83 89 8E 87 80 
HI HI AE 07 88 55 00 D4 02 D1 09 4B 3E A3 5F 58 8C 88 95 7B 83 89 8E 87 80 
HI HI AE 07 88 55 00 D4 02 D1 09 4B 42 A7 5F 58 8C 88 95 64 83 89 8E 87 80 
HI HI AE 07 88 55 00 D4 02 D1 09 4B 48 AA 60 58 8C 88 95 73 83 89 8E 87 80 
HI HI AE 07 88 55 00 D4 02 D1 09 4B 4D AB 5F 58 8C 88 95 7E 83 89 8E 87 80 
HI HI AE 07 88 55 00 D4 02 D1 09 4B 53 AC 5E 58 8C 88 95 80 84 89 8E 87 80 
HI HI AE 07 88 55 00 D4 02 D1 09 4B 59 AC 60 58 8C 88 95 81 84 89 8E 86 80 
HI HI AE 07 88 55 00 D4 02 D1 09 4B 5B AC 60 58 8B 88 95 7E 84 89 8E 86 80 
HI HI AE 07 88 55 00 D4 02 D1 09 4B 65 A7 5F 58 8B 88 95 7C 84 8A 8E 86 80 
HI HI AE 07 88 55 00 D4 02 D1 09 4B 67 A3 60 57 8C 88 95 5F 84 8A 8E 86 80 
HI HI AE 07 88 55 00 D4 02 D1 09 4B 6A 9E 61 57 8C 88 95 86 84 8A 8E 86 80 
HI HI AE O7 88 55 00 D4 02 D1 09 4B 71 95 63 56 8C 89 95 69 85 8A 8D 86 80 
HI HI AE 07 88 55 00 D4 02 D1 09 4B 78 90 65 57 8D 89 86 85 85 8A 8D 86 80 
HI HI AE 07 88 55 00 D4 02 D1 09 4B 7B 88 65 58 8E 8A 97 75 85 8A 8D 56 80 
HI HI AE 07 88 55 00 D4 02 D1 09 4B 7E 83 71 5F 8E 8A 97 83 85 8A 8D 86 80 
HI HI AE 07 88 55 00 D4 02 D1 09 5B 7F 76 71       8A 97 7D 85 8A 8D 86 80 
HI HI AE O7 88 55 00 D4 02 D1 09 5B 81 75 71       8A 97 7B 85 8A 8D 86 80 
HI HI AE O7 88 55 09 D4 02 D1 09 5B 82 75 71       8A 97 7A 85 8A 8D 86 80 
HI HI AE 07 88 55 09 D4 02 D1 09 5B 85 76 71 56 8D 8A 97 78 86 8A 8D 86 80 

AS30140C  24Sep2002
18:35 15:51(JST)
AOS   MEL  LOS  Elev
359   296  230  25.6
Freq. 435.803-.786Hz
(JAS-2 No.108 B 2540-3230) 
                        
HI HI AE 07 88 55 00 D4 10 00 09 00 85 77 74 4C 93 8E 9B 84 8E 82 83 8E 80 
HI HI AE 07 88 55 00 D4 00 00 09 00 83 A2 75 4D 93 8E 9C 79 8D 82 83 8E 80 
HI HI AE 07 88 55 00 D4 00 00 09 00 82 7D 74 4E 93 8E 9B 72 8D 82 83 8E 80 
HI HI AE 07 88 55 00 D4 00 00 09 76 81 98 74 4D 93 8E 9C 83 8D 82 83 8E 80 
HI HI AE 07 88 55 00 D4 00 00 09 00 76 91 74 4D 93 8E 9B 85 8D 82 83 8E 80 
HI HI AE 07 88 55 00 D4 00 00 09 00 66 8A 73 4D 92 8E 9B 85 8D 82 83 8E 80 
HI HI AE 07 88 55 00 D4 00 00 09 00 5F 83 73 4E 92 8E 9B 62 8D 82 83 8E 80
HI HI AE 07 88 55 00 D4 00 00 09 00 57 7B 72 4E 92 8E 9B 7A 8D 82 83 8E 80 
HI HI AE 07 88 55 00 D4 00 00 09 00 50 74 72 4E 92 8E 9B 84 8D 82 83 8E 80
HI HI AE 07 88 55 00 D4 00 00 09 00 4A 6D 72 4F 92 8E 9B 69 8D 82 83 8E 80 
HI HI AE 07 88 55 00 D4 00 00 09 00 48 67 71 4F 92 8E 9B 84 8D 82 83 8E 80 
HI HI AE 07 88 55 00 D4 00 00 09 00 41 61 71 4E 92 8E 9B 6E 8D 82 83 8D 80 
HI HI AE 07 88 55 00 D4 00 00 09 00 3E 5D 71 4F 92 8E 9B 9F 8D 82 83 8D 80 
HI HI AE 07 88 55 00 D4 00 00 09 00 3C 59 70 50 92 8E 9B 64 8D 82 83 8D 80 
HI HI AE 07 88 55 00 D4 00 00 09 00 3C 57 6F 4F 91 8D 9B 69 8D 83 83 8D 80 
HI HI AE 07 88 55 00 D4 00 00 09 00 3C 55 6E 50 91 8D 9A 67 8D 82 83 8D 80 
HI HI AE 07 88 55 00 D4 00 00 09 00 3F 55 6E 52 91 8D 9A 71 8D 82 83 8D 8O  
HI HI AE 07 88 55 00 D4 00 00 09 00 3E 57 6E 54 91 8D 9A 7B 8D 82 84 8D 7F 
HI HI AE 07 88 55 00 D4 00 00 09 00 46 58 6B 54 90 8C 9A 7A 8D 82 83 8D 80 
HI HI AE 07 88 55 00 D4 00 00 09 00 4B 5B 6A 54 8F 8B 98 80 8D 82 84 8D 80 
HI HI AE 07 88 55 00 D4 00 00 09 00 52 5E 69 54 8F 8B 98 7E 8D 82 83 8D 81 
      
------------------------ FO-29の軌道要素 ------------------------------        
 
  ■ 軌道要素1:「jamsat−keps:1243」より         
          SB KEPS @ AMSAT  $ORB02269.N
          2Line Orbital Elements 02269.AMSAT

HR AMSAT ORBITAL ELEMENTS FOR AMATEUR SATELLITES IN NASA FORMAT
FROM WA5QGD FORT WORTH,TX September 26, 2002
SEND SUBSCRIBE/UNSUBSCRIBE TO majordomo@amsat.org ONLY
BID: ORB02269.N

 DECODE 2-LINE ELSETS WITH THE FOLLOWING KEY:
 1 AAAAAU 00  0  0 BBBBB.BBBBBBBB  .CCCCCCCC  00000-0  00000-0 0  DDDZ
 2 AAAAA EEE.EEEE FFF.FFFF GGGGGGG HHH.HHHH III.IIII JJ.JJJJJJJJKKKKKZ
 KEY: A-CATALOGNUM B-EPOCHTIME C-DECAY D-ELSETNUM E-INCLINATION F-RAAN
 G-ECCENTRICITY H-ARGPERIGEE I-MNANOM J-MNMOTION K-ORBITNUM Z-CHECKSUM

FO-29
1 24278U 96046B   02267.88540879  .00000077  00000-0  11646-3 0 05287
2 24278 098.5226 074.1432 0350036 236.7617 119.9533 13.52852739301478

 ■ 軌道要素2:「jamsat−keps:1244」より 
       SB KEPS @ AMSAT  $ORB02269.O
       Orbital Elements  02269.OSCAR

HR AMSAT ORBITAL ELEMENTS FOR OSCAR SATELLITES
FROM WA5QGD FORT WORTH,TX September 26, 2002
SEND SUBSCRIBE/UNSUBSCRIBE TO majordomo@amsat.org ONLY
BID: ORB02269.O
TO ALL RADIO AMATEURS BT

Satellite: FO-29
Catalog number: 24278
Epoch time:      02267.88540879
Element set:    0528
Inclination:      098.5226 deg
RA of node:       074.1432 deg
Eccentricity:    0.0350036
Arg of perigee:   236.7617 deg
Mean anomaly:     119.9533 deg
Mean motion:   13.52852739 rev/day
Decay rate:        7.7e-07 rev/day^2
Epoch rev:           30147
Checksum:              333

-------------------  FO-29(JAS-2)のテレメトリに関する情報  ---------------------- 
 
2)本日のハムフェアにおける衛星受信実演協力(熊本より)のため上記2002年
 9月27日(金)のテレメトリの15:43のパスの最終行を分析して
 おきます。


AS30180C  27Sep2002
15:43-15:56(JST)
AOS   MEL  LOS  Elev
 35    88  143  13.8
Freq. 435.802-.789Hz
(JAS-2 No.109 A 950-1700 )

HI HI AE 07 88 55 00 D4 00 00 09 00 49 78 5B 5A 86 84 90 7D 8A 8B 8C 89 81


テレメトリ   内 容        換算算値 単 位
3C	磁気センサーZ軸=	35784.3	[nT]
3D	磁気センサX軸	=	58823.5	[nT]
4A	太陽電池発生電流=	  892.2	[mA]
4B	B充放電電流	=	 -236.0	[mA]
4C	B端子電圧	=	   14.4	[V]
4D	B中間端子電圧	=	    6.4	[V]
5A	バス電圧	=	   14.1	[V]
5B	JTA送信電力	=	  714.4	[mW]
5C 	構体温度1	=	   28.3	[℃]
5D	構体温度2	=	   27.9	[℃]
6A	構体温度3	=	   27.5	[℃]
6B	構体温度4	=	   28.7	[℃]
6C	Bセル温度	=	   31.8	[℃]

 ========================== FO-29(ふじ3号)のテレメトリ分析、QSO情報等 =====================
   
 3)[jamsat-bb:

 =================================================================================================
 
 4)JARL のホームページに運用予定が記載されていましたのでご紹介します.
       ( http://www.jarl.or.jp/Japanese/3_Fuji/new/uy.htm )
       
        *** 運用予定について ***

   4月01日(月) 〜 6月30日(日)アナログ系運用 

  *なお,運用予定は都合により,変更することがありますので,あらかじめご了承願います。

 照会先 : lab@jarl.or.jp

 最新の情報はテレホンサービス(03−3942−1000)をお聞きください。  
 以後の運用につきましては平成14年7月上旬にお知らせいたします。        
     
-----------------------    FO−20(JAS-1b)道要素   -------------------------
  
  ■ 軌道要素1 :出典はFO-29「ふじ3号」に同じ.
  
FO-20
1 20480U 90013C   02268.99244330  .00000038  00000-0  16362-3 0  4299
2 20480  99.0248 254.2485 0540137 333.7470  23.7145 12.83323075591848
 
  ■ 軌道要素2 :出典はFO−29「ふじ3号」に同じ.
               
